Location: Great Malvern
(52.1167°N, 2.3167°W)
Time: 07:30:28
(UTC+00:00)

Cosmos 1544 - Pass Details

Date: 18 September 2020
Orbit: 471 x 491 km, 82.5° (Epoch: 21 October)

Event Time Altitude Azimuth Distance (km) Brightness Sun altitude
Rises 18:55:36 0° 193° (SSW) 2,556 6.8 -6.8°
Reaches altitude 10° 18:57:42 10° 195° (SSW) 1,677 5.8 -7.2°
Maximum altitude 19:01:22 76° 281° (W) 509 3.3 -7.7°
Drops below altitude 10° 19:05:03 10° 8° (N) 1,681 5.9 -8.3°
Sets 19:07:09 0° 10° (N) 2,563 6.8 -8.6°
